TIME,�g��[���C[MJ/h],����[MJ/h],�Ɩ�[MJ/h],�~�[[MJ/h],�①��[MJ/h],��y���[MJ/h],�Ǝ��q��[MJ/h],���̑��s��[MJ/h],�u�����`������[MJ/h]
2003/3/1 0:00,0.43344,0,0.44064,0.42048,0.2376,0.39456,0.11952,0,-0.1224
2003/3/1 0:15,0.432,0,0.52848,0.02592,0.4104,0.38016,0.0864,0,-0.1152
2003/3/1 0:30,0.38736,0,0.42768,0.0216,0.04032,0.32544,0.08496,0,-0.05184
2003/3/1 0:45,0.37008,0,0.43488,0.0216,0.08784,0.34128,0.0936,0,-0.05472
2003/3/1 1:00,0.1224,0,0.54432,0.0216,0.42192,0.47952,0.08352,0,-0.08064
2003/3/1 1:15,0,0,0.28944,0.0216,0.11088,0.28656,0.0936,0,0.036
2003/3/1 1:30,0,0,0.1152,0.0216,0.00144,0.0864,0.13248,0,0.09936
2003/3/1 1:45,0,0,0.108,0.0216,0.41472,0.0864,0.09792,0,0.06624
2003/3/1 2:00,0,0,0.10512,0.0216,0.1224,0.0864,0.09504,0,0.08208
2003/3/1 2:15,0,0,0.09792,0.0216,0,0.0864,0.0936,0,0.11376
2003/3/1 2:30,0,0,0.11088,0.0216,0.38304,0.0864,0.0936,0,0.07344
2003/3/1 2:45,0,0,0.09648,0.0216,0.2304,0.0864,0.12816,0,0.09216
2003/3/1 3:00,0,0,0.10656,0.0216,0,0.0864,0.0936,0,0.10368
2003/3/1 3:15,0,0,0.10656,0.0216,0.2592,0.0864,0.09792,0,0.07056
2003/3/1 3:30,0,0,0.10368,0.0216,0.28512,0.0864,0.09936,0,0.07776
2003/3/1 3:45,0,0,0.10224,0.0216,0,0.08784,0.10512,0,0.09072
2003/3/1 4:00,0,0,0.11664,0.0216,0.18576,0.0864,0.12384,0,0.08064
2003/3/1 4:15,0,0,0.10512,0.0216,0.39456,0.0864,0.09792,0,0.06336
2003/3/1 4:30,0,0,0.10512,0.0216,0,0.0864,0.09792,0,0.1008
2003/3/1 4:45,0,0,0.11088,0.0216,0.07632,0.0864,0.09936,0,0.09504
2003/3/1 5:00,0.00576,0,0.39456,0.0216,0.40176,0.08784,0.09792,0,0.0216
2003/3/1 5:15,0,0,0.78336,0.468,0.072,0.1872,0.1224,0,-0.09792
2003/3/1 5:30,0,0,0.64512,0.0216,0.02736,0.21312,0.08784,0,0.04752
2003/3/1 5:45,0,0,0.108,0.0216,0.40608,0.0864,0.08928,0,0.06912
2003/3/1 6:00,0,0,0.11088,0.0216,0.13968,0.0864,0.08352,0,0.08496
2003/3/1 6:15,0,0,0.10224,0.0216,0,0.0864,0.08928,0,0.11088
2003/3/1 6:30,0,0,0.10944,0.0216,0.30528,0.0864,0.11664,0,0.07056
2003/3/1 6:45,0,0,0.11088,0.0216,0.23472,0.08784,0.08928,0,0.08928
2003/3/1 7:00,0,0,0.1008,0.0216,0,0.10224,0.0936,0,0.1008
2003/3/1 7:15,0,0,0.09936,0.0216,0.20304,0.09216,0.08496,0,0.09648
2003/3/1 7:30,0,0,0.14976,0.0216,0.3096,0.10368,0.08784,0,0.06768
2003/3/1 7:45,0,0,0.37008,0.5688,0,0.108,0.13248,0,0.02736
2003/3/1 8:00,0,0,1.08864,1.63872,0.23616,0.108,0.49248,0,-0.21744
2003/3/1 8:15,0,0,1.41552,0.0216,0.4032,0.108,0.50256,0,-0.15264
2003/3/1 8:30,0,0,0.99216,0.0216,0.01584,0.23472,0.49824,0,-0.1008
2003/3/1 8:45,0,0,0.75168,0.0216,0.0432,0.42912,0.09648,0,-0.03456
2003/3/1 9:00,0,0,0.84816,0.0216,0.39312,0.44208,0.14112,0,-0.09072
2003/3/1 9:15,2.1672,0,0.84672,0.0216,0.08064,0.45072,0.10512,0,-0.0792
2003/3/1 9:30,2.23056,0,0.8424,0.0216,0,0.45504,0.09792,0,-0.05328
2003/3/1 9:45,2.02896,0,0.78768,0.0216,0.37296,0.39456,0.10512,0,-0.08496
2003/3/1 10:00,1.8576,0,0.69264,0.0216,0.13104,0.24048,1.23408,0,-0.16416
2003/3/1 10:15,1.98288,0,0.89856,0.0216,0,0.2376,0.0936,0,-0.02304
2003/3/1 10:30,1.91952,0,0.48528,0.0216,0.33552,0.23472,0.39456,0,-0.05472
2003/3/1 10:45,1.95264,0,0.40608,0.0216,0.24048,0.2376,0.10512,0,-0.00288
2003/3/1 11:00,2.13984,0,0.4032,0.0216,0,0.2376,0.10224,0,0.0288
2003/3/1 11:15,2.19312,0,0.65232,0.0216,0.23616,0.2376,0.13392,0,0.00288
2003/3/1 11:30,1.908,0,0.69408,0.0216,0.2808,0.2376,0.1008,0,-0.00288
2003/3/1 11:45,1.88352,0,0.69696,0.0216,0,0.2376,0.09936,0,0.02016
2003/3/1 12:00,2.232,0,0.55584,0.0216,0.19584,0.24048,0.1008,0,-0.00144
2003/3/1 12:15,3.65616,0,0.45936,0.0216,0.36576,0.288,0.13536,0,-0.10224
2003/3/1 12:30,1.96128,0,1.92096,0.0216,0,0.2376,0.10368,0,-0.05472
2003/3/1 12:45,1.9224,0,1.08144,0.0216,0.14112,0.2376,0.1008,0,-0.0576
2003/3/1 13:00,1.58256,0,0.81072,0.36576,0.37008,0.2376,0.0864,0,-0.05184
2003/3/1 13:15,1.49616,0,0.52992,0.84816,0.03024,0.2376,0.09504,0,-0.06768
2003/3/1 13:30,2.0016,0,0.63648,0.0216,0.1224,0.2376,0.11232,0,-0.05616
2003/3/1 13:45,2.20464,0,0.7416,0.0216,0.40752,0.2376,0.0864,0,-0.11664
2003/3/1 14:00,2.13696,0,0.71856,0.0216,0.05184,0.2376,0.0864,0,-0.09792
2003/3/1 14:15,2.05776,0,0.83808,0.0216,0.0576,0.2376,0.08784,0,-0.08208
2003/3/1 14:30,1.96128,0,0.99216,0.0216,0.40176,3.37392,0.1152,0,-0.57024
2003/3/1 14:45,2.73888,0,1.46016,0.0216,0.1296,3.85056,0.0864,0,-0.7128
2003/3/1 15:00,2.14848,0,1.89216,0.0216,0,3.86928,0.08496,0,-0.65808
2003/3/1 15:15,1.97568,0,1.50336,0.0216,0.36864,1.41264,0.09216,0,-0.3528
2003/3/1 15:30,1.94256,0,1.18368,0.0216,0.2376,0.1944,0.09648,0,-0.1296
2003/3/1 15:45,0.396,0,0.33984,0.0216,0,0.1944,0.13248,0,0.03888
2003/3/1 16:00,0,0,0.10944,0.0216,0.25488,0.1944,0.09936,0,0.04176
2003/3/1 16:15,0,0,0.11088,0.0216,0.30528,0.1944,0.09792,0,0.02736
2003/3/1 16:30,0,0,0.44352,0.0216,0,0.1944,0.09792,0,0.02736
2003/3/1 16:45,0.5688,0,1.0512,0.0216,0.1656,0.1944,0.0936,0,-0.07632
2003/3/1 17:00,2.0808,0,1.77408,0.4608,0.39744,0.34992,0.11808,0,-0.23184
2003/3/1 17:15,1.21824,0,1.74672,0.44352,0.08496,0.39312,0.08352,0,-0.20448
2003/3/1 17:30,2.40192,0,2.0304,0.27504,0.01152,0.4176,0.08784,0,-0.27936
2003/3/1 17:45,4.55904,0,2.44224,0.0216,0.37872,0.39312,0.0864,0,-0.44928
2003/3/1 18:00,3.96576,0,3.37104,0.0216,0.31248,0.39456,0.1152,0,-0.56592
2003/3/1 18:15,3.38832,0,2.64672,0.504,0.01584,0.58608,0.08928,0,-0.54
2003/3/1 18:30,3.47616,0,2.59488,0.16416,0.19296,0.4608,0.09216,0,-0.47088
2003/3/1 18:45,3.30192,0,3.02112,0.0216,0.40752,0.3816,0.09936,0,-0.53136
2003/3/1 19:00,1.76688,0,2.24208,0.0216,0.19584,0.3672,0.13392,0,-0.27648
2003/3/1 19:15,1.37232,0,2.22336,0.0216,0,0.34704,0.09072,0,-0.22464
2003/3/1 19:30,1.56096,0,2.21904,1.06272,0.3888,0.3456,0.0936,0,-0.40176
2003/3/1 19:45,1.81296,0,2.17152,0.05616,0.3744,0.34416,0.12672,0,-0.24336
2003/3/1 20:00,1.32624,0,2.0664,0.0216,0,0.3456,0.0936,0,-0.21456
2003/3/1 20:15,3.58128,0,2.08224,0.15264,0.18432,0.34848,0.09504,0,-0.38304
2003/3/1 20:30,3.46176,0,2.20032,0.40176,0.40752,0.33264,0.09216,0,-0.43488
2003/3/1 20:45,3.32928,0,1.89936,0.2304,0.11376,0.324,0.09792,0,-0.3168
2003/3/1 21:00,2.8728,0,1.8864,0.0216,0.02592,0.324,0.12672,0,-0.2664
2003/3/1 21:15,1.47168,0,1.8792,0.0216,0.4176,0.396,0.08496,0,-0.19008
2003/3/1 21:30,1.43136,0,2.73168,0.0216,0.20016,0.3888,0.08784,0,-0.27936
2003/3/1 21:45,1.94688,0,2.10384,0.0216,0,0.34848,0.0936,0,-0.30096
2003/3/1 22:00,2.04768,0,1.2744,0.0216,0.31968,0.34128,0.12816,0,-0.1944
2003/3/1 22:15,1.93536,0,1.01952,0.0216,0.2952,0.3456,0.0936,0,-0.1224
2003/3/1 22:30,1.81152,0,0.96624,0.0216,0,0.3456,0.09792,0,-0.08496
2003/3/1 22:45,1.93104,0,0.7128,0.0216,0.25488,0.3456,1.68336,0,-0.27504
2003/3/1 23:00,1.0224,0,1.03536,0.0216,0.2952,0.36288,0.09648,0,-0.11232
2003/3/1 23:15,0.42912,0,1.0008,0.0216,0,0.39168,0.11952,0,-0.12528
2003/3/1 23:30,0.18864,0,1.04976,0.0216,0.252,0.47952,0.83808,0,-0.2448
2003/3/1 23:45,0.40896,0,0.45216,0.0216,0.41184,0.66672,0.0864,0,-0.11808
2003/3/2 0:00,0.36144,0,0.43632,0.0216,0.53856,0.64368,0.0864,0,-0.1584
2003/3/2 0:15,0.4104,0,0.4464,0.0216,0.54,0.62064,0.1152,0,-0.18576
2003/3/2 0:30,0.40896,0,0.44208,0.0216,0.44208,0.6192,0.08352,0,-0.13968
2003/3/2 0:45,0.05904,0,0.23472,0.0216,0.49248,0.35424,0.09216,0,-0.01872
2003/3/2 1:00,0,0,0.10944,0.0216,0.45216,0.24048,0.08784,0,0.03744
2003/3/2 1:15,0,0,0.10512,0.0216,0.43056,0.2376,0.08928,0,0.03888
2003/3/2 1:30,0,0,0.11088,0.0216,0.28944,0.2376,0.12528,0,0.04896
2003/3/2 1:45,0,0,0.108,0.0216,0,0.2376,0.0864,0,0.08784
2003/3/2 2:00,0,0,0.10368,0.0216,0.30672,0.2376,0.08496,0,0.06192
2003/3/2 2:15,0,0,0.10224,0.0216,0.35568,0.2376,0.09072,0,0.05328
2003/3/2 2:30,0,0,0.108,0.0216,0,0.2376,0.08784,0,0.08496
2003/3/2 2:45,0,0,0.1152,0.0216,0.1872,0.2376,0.12096,0,0.07344
2003/3/2 3:00,0,0,0.11232,0.0216,0.324,0.2376,0.08352,0,0.05904
2003/3/2 3:15,0,0,0.11376,0.0216,0,0.24048,0.09072,0,0.07632
2003/3/2 3:30,0,0,0.1008,0.0216,0.19296,0.23904,0.0864,0,0.07344
2003/3/2 3:45,0,0,0.11808,0.0216,0.3456,0.2376,0.11952,0,0.06192
2003/3/2 4:00,0,0,0.1152,0.0216,0,0.2376,0.0864,0,0.0864
2003/3/2 4:15,0,0,0.12096,0.0216,0.15984,0.25632,0.0936,0,0.0504
2003/3/2 4:30,0,0,0.11088,0.0216,0.31392,0.24624,0.08784,0,0.06768
2003/3/2 4:45,0,0,0.10944,0.0216,0,0.2376,0.09504,0,0.08496
2003/3/2 5:00,0,0,0.14256,0.0216,0.16128,0.2376,0.0936,0,0.07632
2003/3/2 5:15,0,0,0.11232,0.0216,0.30672,0.24336,0.09504,0,0.0648
2003/3/2 5:30,0,0,0.12096,0.0216,0,0.24768,0.11808,0,0.0792
2003/3/2 5:45,0,0,0.1008,0.0216,0.15408,0.2376,0.09648,0,0.08352
2003/3/2 6:00,0,0,0.11376,0.0216,0.37008,0.2376,0.08928,0,0.05616
2003/3/2 6:15,0,0,0.10944,0.0216,0,0.2376,0.09072,0,0.08352
2003/3/2 6:30,0,0,0.10656,0.0216,0.08208,0.2376,0.12816,0,0.0648
2003/3/2 6:45,0,0,0.11232,0.0216,0.4032,0.24192,0.09072,0,0.05184
2003/3/2 7:00,0,0,0.11088,0.0216,0.00576,0.24768,0.09504,0,0.08064
2003/3/2 7:15,0,0,0.108,0.0216,0,0.2376,0.09648,0,0.08208
2003/3/2 7:30,0,0,0.11808,0.0216,0.41328,0.24624,0.09936,0,0.04176
2003/3/2 7:45,0.76752,0,0.24048,0.0216,0.05184,0.2376,0.65952,0,-0.108
2003/3/2 8:00,0.96048,0,0.12528,0.42912,0.01296,0.2664,0.67104,0,-0.072
2003/3/2 8:15,3.0096,0,0.29232,2.35872,0.4104,0.47952,3.84048,0,-0.61488
2003/3/2 8:30,1.97136,0,0.28944,0.18,0.1656,0.43632,3.56256,0,-0.44064
2003/3/2 8:45,2.39616,0,0.324,0.0216,0,0.42192,3.72384,0,-0.4824
2003/3/2 9:00,4.61808,0,0.77616,0.0216,0.31824,0.41328,1.00368,0,-0.37728
2003/3/2 9:15,4.2984,0,1.35072,0.0216,0.21168,0.43056,0.0864,0,-0.22896
2003/3/2 9:30,3.88512,0,1.35792,0.0216,0,0.4464,0.34848,0,-0.26208
2003/3/2 9:45,1.86048,0,0.54144,0.0216,0.26208,0.4536,0.108,0,-0.0576
2003/3/2 10:00,0.69408,0,0.18288,0.0216,0.30096,0.41328,0.13824,0,0.0144
2003/3/2 10:15,0.6912,0,0.18288,0.0216,0,0.40896,0.10368,0,0.02736
2003/3/2 10:30,0.62208,0,0.20736,0.0216,0.19152,0.41184,0.10368,0,0.02304
2003/3/2 10:45,0.65808,0,0.13104,0.0216,0.33552,0.40608,0.0936,0,0.01584
2003/3/2 11:00,0.50256,0,0.1224,0.0216,0,0.3888,0.11808,0,0.03168
2003/3/2 11:15,0.5544,0,0.21312,0.69408,0.19872,0.48528,0.08928,0,-0.10656
2003/3/2 11:30,1.2024,0,0.51696,0.0216,0.41184,0.63072,0.23904,0,-0.18576
2003/3/2 11:45,3.12192,0,0.39312,0.0216,0.02016,0.63216,0.12672,0,-0.36576
2003/3/2 12:00,0.55296,0,0.5832,0.0216,0.09072,0.612,0.10656,0,-0.06048
2003/3/2 12:15,0.27504,0,0.48096,0.0216,0.4104,0.468,0.08496,0,-0.04608
2003/3/2 12:30,0,0,0.47088,0.0216,0.04464,0.34992,0.08784,0,0.00864
2003/3/2 12:45,0.01728,0,0.69408,0.40752,0.09792,0.44784,0.08928,0,-0.13392
2003/3/2 13:00,0,0,0.3096,0.32832,0.42192,0.61056,0.11232,0,-0.08784
2003/3/2 13:15,0,0,0.11808,0.072,0.11376,0.44496,0.10944,0,0.01728
2003/3/2 13:30,0,0,0.11376,0.0216,0,0.40896,0.91584,0,-0.0576
2003/3/2 13:45,0,0,0.11232,0.0216,0.4104,0.39168,0.90288,0,-0.0936
2003/3/2 14:00,0,0,0.33264,0.57744,0.1368,0.3888,0.63216,0,-0.13248
2003/3/2 14:15,0,0,0.10944,0.0216,0,0.3888,0.11952,0,0.03888
2003/3/2 14:30,0,0,0.1152,0.0216,0.4104,0.3888,0.08352,0,0.01728
2003/3/2 14:45,0,0,0.10656,0.0216,0.18,0.39456,0.08496,0,0.02592
2003/3/2 15:00,0,0,0.11088,0.0216,0,0.40608,0.08352,0,0.04752
2003/3/2 15:15,0,0,0.14256,0.0216,0.34704,0.3888,0.10656,0,0.01008
2003/3/2 15:30,0.64512,0,0.144,0.0216,0.26064,0.3888,0.08784,0,0.01872
2003/3/2 15:45,1.116,0,0.36576,0.35424,0.0288,0.39744,0.0864,0,-0.12096
2003/3/2 16:00,1.224,0,0.51696,0.0216,0.28368,0.37584,0.08784,0,-0.10368
2003/3/2 16:15,1.16928,0,0.46368,0.0216,0.3024,0.35424,0.08352,0,-0.072
2003/3/2 16:30,1.152,0,0.58608,0.0216,0,0.35568,0.11232,0,-0.04464
2003/3/2 16:45,1.00512,0,0.59328,0.0216,0.28944,0.3168,0.08352,0,-0.07488
2003/3/2 17:00,1.11168,0,0.5976,0.0216,0.22176,0.19584,0.09072,0,-0.05904
2003/3/2 17:15,1.15488,0,1.09152,0.57744,0.04464,0.1944,0.0864,0,-0.19872
2003/3/2 17:30,2.81808,0,1.17216,0.0216,0.31824,0.1944,0.0864,0,-0.23904
2003/3/2 17:45,3.22416,0,1.20528,0.79344,0.33264,0.1944,0.08496,0,-0.25776
2003/3/2 18:00,3.04848,0,1.4328,1.404,0,0.32256,0.12528,0,-0.27648
2003/3/2 18:15,3.0024,0,2.39616,0.7632,0.20304,0.41472,0.08496,0,-0.5112
2003/3/2 18:30,2.91312,0,2.02176,0.09648,0.40896,0.56592,0.08496,0,-0.44784
2003/3/2 18:45,2.47392,0,1.94256,0.08208,0,0.63792,0.08352,0,-0.38016
2003/3/2 19:00,2.34288,0,1.93968,0.08064,0.13248,0.63072,0.12096,0,-0.4032
2003/3/2 19:15,1.90944,0,1.8792,0.08064,0.41472,0.39888,0.08928,0,-0.3528
2003/3/2 19:30,0.77904,0,1.65888,0.0216,0.19152,0.1944,0.09072,0,-0.2016
2003/3/2 19:45,0.89136,0,1.67472,0.0216,0,0.1944,0.08784,0,-0.17568
2003/3/2 20:00,0.83664,0,1.89504,0.0216,0.35712,0.1944,0.08784,0,-0.17424
2003/3/2 20:15,0.89424,0,2.45376,0.0216,0.3672,0.24768,0.08496,0,-0.3096
2003/3/2 20:30,0.9864,0,2.32272,0.0216,0,0.41616,0.11376,0,-0.24768
2003/3/2 20:45,1.0728,0,2.31984,0.0216,0.19584,0.4176,0.0864,0,-0.2376
2003/3/2 21:00,0.9504,0,2.69568,0.0216,0.41184,0.41328,0.08496,0,-0.3528
2003/3/2 21:15,0.97056,0,2.14704,0.0216,0.0792,0.40896,0.972,0,-0.37872
2003/3/2 21:30,1.05552,0,1.76112,0.0216,0.08928,0.41616,0.20736,0,-0.18288
2003/3/2 21:45,1.18368,0,1.6344,0.0216,0.41904,0.4104,0.11664,0,-0.15696
2003/3/2 22:00,1.01664,0,1.6128,0.0216,0.19008,0.4104,0.0864,0,-0.12816
2003/3/2 22:15,1.116,0,1.60848,0.0216,0,0.39168,0.08928,0,-0.1656
2003/3/2 22:30,1.43712,0,1.5552,0.0216,0.35136,0.37152,0.07776,0,-0.29952
2003/3/2 22:45,3.87648,0,0.96768,0.0216,0.28656,0.35712,1.17216,0,-0.63792
2003/3/2 23:00,1.0008,0,1.21104,0.0216,0,0.35568,0.11808,0,-0.16272
2003/3/2 23:15,0.37008,0,0.96048,0.0216,0.2952,0.3456,0.58608,0,-0.20592
2003/3/2 23:30,0.03888,0,0.62496,0.0216,0.33264,0.42768,0.27936,0,-0.108
2003/3/2 23:45,0,0,0.68256,0.0216,0,0.40464,0.06768,0,-0.05184
2003/3/3 0:00,0,0,0.23472,0.0216,0.23184,0.30384,0.08208,0,0.00432
2003/3/3 0:15,0,0,0.1008,0.0216,0.32832,0.20448,0.08352,0,0.04176
2003/3/3 0:30,0,0,0.10368,0.0216,0,0.2016,0.08208,0,0.0648
2003/3/3 0:45,0,0,0.10368,0.0216,0.25056,0.19584,0.08784,0,0.04464
2003/3/3 1:00,0,0,0.09648,0.0216,0.34704,0.19584,0.10656,0,0.04032
2003/3/3 1:15,0,0,0.11232,0.0216,0,0.19296,0.08496,0,0.06192
2003/3/3 1:30,0,0,0.108,0.0216,0.2232,0.1944,0.0864,0,0.04032
2003/3/3 1:45,0,0,0.10512,0.0216,0.31968,0.1944,0.08496,0,0.05184
2003/3/3 2:00,0,0,0.10944,0.0216,0,0.1944,0.0864,0,0.06912
2003/3/3 2:15,0,0,0.10944,0.0216,0.22752,0.1944,0.08064,0,0.0432
2003/3/3 2:30,0,0,0.09936,0.0216,0.43776,0.1944,0.1152,0,0.0216
2003/3/3 2:45,0,0,0.11952,0.0216,0.54,0.1944,0.08496,0,-0.00288
2003/3/3 3:00,0,0,0.1152,0.0216,0.54,0.1944,0.08064,0,-0.00288
2003/3/3 3:15,0,0,0.11088,0.0216,0.43488,0.1944,0.08496,0,0.02304
2003/3/3 3:30,0,0,0.108,0.0216,0.48816,0.1944,0.08928,0,0.02448
2003/3/3 3:45,0,0,0.10224,0.0216,0.45072,0.1944,0.08352,0,0.03024
2003/3/3 4:00,0,0,0.1008,0.0216,0.42624,0.1944,0.08496,0,0.03168
2003/3/3 4:15,0,0,0.11376,0.0216,0.1368,0.1944,0.08496,0,0.05616
2003/3/3 4:30,0,0,0.1008,0.0216,0.05328,0.1944,0.108,0,0.05472
2003/3/3 4:45,0,0,0.11088,0.0216,0.42336,0.1944,0.072,0,0.03168
2003/3/3 5:00,0,0,0.108,0.0216,0.17712,0.1944,0.09072,0,0.05328
2003/3/3 5:15,0,0,0.1152,0.0216,0,0.1944,0.08352,0,0.06336
2003/3/3 5:30,0,0,0.11376,0.0216,0.37584,0.1944,0.08352,0,0.0288
2003/3/3 5:45,0,0,0.16704,0.0216,0.1872,0.1944,0.0792,0,0.04752
2003/3/3 6:00,0,0,0.10944,0.0216,0,0.1944,0.11952,0,0.06048
2003/3/3 6:15,0,0,0.10368,0.0216,0.35568,0.1944,0.08496,0,0.02448
2003/3/3 6:30,0,0,0.11088,0.0216,0.21744,0.1944,0.15696,0,0.03888
2003/3/3 6:45,2.31264,0,0.6048,0.0216,0,0.1944,1.008,0,-0.12096
2003/3/3 7:00,2.66256,0,1.54224,0.66384,0.32112,0.21024,0.75888,0,-0.3672
2003/3/3 7:15,2.3688,0,2.05776,1.33488,0.2664,0.1944,0.1584,0,-0.35712
2003/3/3 7:30,2.21616,0,2.37024,0.0216,0,0.1944,0.11808,0,-0.25056
2003/3/3 7:45,2.21904,0,2.3904,0.0216,0.29808,0.1944,0.09072,0,-0.21744
2003/3/3 8:00,1.11744,0,1.67616,0.0216,0.3168,0.1944,0.08784,0,-0.15552
2003/3/3 8:15,0.79056,0,1.152,0.0216,0,0.1944,0.12672,0,-0.1728
2003/3/3 8:30,0,0,0.89136,0.0216,0.22176,0.1944,0.576,0,-0.06624
2003/3/3 8:45,0,0,0.70992,0.0216,0.30816,0.1944,0.1224,0,0.00576
2003/3/3 9:00,0,0,0.41184,0.0216,0,0.1944,0.09504,0,0.0648
2003/3/3 9:15,0,0,0.41328,0.0216,0.20592,0.1944,0.09504,0,0.05184
2003/3/3 9:30,0,0,0.40464,0.0216,0.31824,0.1944,0.09792,0,0.03744
2003/3/3 9:45,0,0,0.41328,0.0216,0,0.1944,0.10944,0,0.05184
2003/3/3 10:00,0,0,0.42768,0.0216,0.18144,0.1944,0.11664,0,0.04752
2003/3/3 10:15,0,0,0.40032,0.0216,0.37152,0.1944,0.1008,0,0.04032
2003/3/3 10:30,0,0,0.40752,0.0216,0,0.1944,0.09504,0,0.0648
2003/3/3 10:45,0,0,0.40032,0.0216,0.13248,0.1944,0.09504,0,0.04608
2003/3/3 11:00,0,0,0.40608,0.0216,0.39744,0.1944,0.09648,0,0.03744
2003/3/3 11:15,0,0,0.40176,0.0216,0,0.1944,0.09648,0,0.06624
2003/3/3 11:30,0,0,0.39744,0.0216,0.06912,0.1944,0.09504,0,0.05904
2003/3/3 11:45,0,0,0.40176,0.0216,0.40032,0.1944,0.09504,0,0.03168
2003/3/3 12:00,0,0,0.41616,0.0216,0.04464,0.19872,0.12384,0,0.06192
2003/3/3 12:15,0,0,0.40752,0.0216,0,0.1944,0.09504,0,0.07488
2003/3/3 12:30,0,0,0.40896,0.0216,0.41184,0.1944,0.09504,0,0.036
2003/3/3 12:45,0,0,0.39888,0.0216,0.07056,0.1944,0.09648,0,0.08064
2003/3/3 13:00,0,0,0.41616,0.0216,0.00432,0.1944,0.1008,0,0.06624
2003/3/3 13:15,0,0,0.41472,0.0216,0.41328,0.1944,0.09648,0,0.03312
2003/3/3 13:30,0,0,0.40608,0.0216,0.06336,0.1944,0.12816,0,0.0576
2003/3/3 13:45,0,0,0.4104,0.0216,0,0.1944,0.09936,0,0.07344
2003/3/3 14:00,0,0,0.40752,0.0216,0.40896,0.1944,0.09216,0,0.03888
2003/3/3 14:15,0,0,0.40608,0.0216,0.06768,0.1944,0.09792,0,0.06192
2003/3/3 14:30,0,0,0.40752,0.0216,0.01296,0.1944,0.1008,0,0.05904
2003/3/3 14:45,0,0,0.4104,0.0216,0.41472,0.1944,0.09936,0,0.03312
2003/3/3 15:00,0,0,0.4104,0.0216,0.06336,0.1944,0.09792,0,0.06624
2003/3/3 15:15,0,0,0.41184,0.0216,0,0.1944,0.12672,0,0.07056
2003/3/3 15:30,0.00288,0,0.35424,0.4392,0.39888,0.23184,0.09792,0,0.00432
2003/3/3 15:45,0.0216,0,0.49392,2.38464,0.08496,0.41184,0.09648,0,-0.01296
2003/3/3 16:00,0.0216,0,0.40608,0.52704,0,0.38592,0.09504,0,0.02448
2003/3/3 16:15,0.01872,0,0.432,0.1368,0.3816,0.38304,0.09792,0,-0.05616
2003/3/3 16:30,2.0808,0,0.4536,0.0792,0.12816,0.32112,0.12528,0,-0.036
2003/3/3 16:45,2.74608,0,1.42704,0.576,0.01728,0.36288,0.09936,0,-0.24048
2003/3/3 17:00,4.608,0,2.30832,0.0216,0.32976,0.45072,0.08928,0,-0.432
2003/3/3 17:15,3.91536,0,2.10528,0.0216,0.24768,0.44496,0.08928,0,-0.36288
2003/3/3 17:30,3.77712,0,2.12112,0.0216,0,0.45216,0.0864,0,-0.34704
2003/3/3 17:45,3.13776,0,2.08368,0.0216,0.21168,0.43776,0.09216,0,-0.31536
2003/3/3 18:00,2.13696,0,1.5768,0.0216,0.29952,0.432,0.12816,0,-0.21024
2003/3/3 18:15,2.0232,0,0.97344,0.0216,0,0.38304,0.09792,0,-0.0864
2003/3/3 18:30,1.66752,0,1.3824,0.0216,0.19728,0.34704,0.09792,0,-0.14688
2003/3/3 18:45,1.25424,0,1.93392,0.0216,0.39744,0.252,0.0864,0,-0.22752
2003/3/3 19:00,1.332,0,2.14272,0.0216,0.036,0.32688,0.08496,0,-0.22752
2003/3/3 19:15,1.28016,0,1.82448,0.0216,0.036,0.52992,0.32976,0,-0.23328
2003/3/3 19:30,1.36512,0,1.67904,0.0216,0.39744,0.61632,0.11232,0,-0.22608
2003/3/3 19:45,1.29456,0,1.68336,0.0216,0.14688,0.62928,0.08496,0,-0.22176
2003/3/3 20:00,1.31904,0,1.7136,0.0216,0,0.65232,0.08496,0,-0.20592
2003/3/3 20:15,1.92528,0,1.65312,0.0216,0.32256,0.60048,0.08352,0,-0.22032
2003/3/3 20:30,1.76544,0,0.8208,0.0216,0.23328,0.40752,0.1224,0,-0.09792
2003/3/3 20:45,1.78992,0,0.74736,0.0216,0,0.41904,0.09792,0,-0.05904
2003/3/3 21:00,2.05632,0,1.32192,0.52848,0.26064,0.4536,0.1008,0,-0.22608
2003/3/3 21:15,1.73376,0,2.07504,0.0216,0.34992,0.4752,0.0936,0,-0.27792
2003/3/3 21:30,1.67616,0,2.21616,0.0216,0,0.47952,0.09648,0,-0.28224
2003/3/3 21:45,1.72224,0,2.11392,0.0216,0.13104,0.63216,0.1296,0,-0.28368
2003/3/3 22:00,1.37376,0,1.3824,0.0216,0.396,0.33552,0.09792,0,-0.18432
2003/3/3 22:15,1.80576,0,1.03824,0.0216,0,0.21744,0.09504,0,-0.06192
2003/3/3 22:30,0.04608,0,1.51056,0.0216,0.09216,0.36432,0.09504,0,-0.17568
2003/3/3 22:45,0.01152,0,1.2096,0.0216,0.40032,0.33408,0.94464,0,-0.2448
2003/3/3 23:00,0,0,0.75456,0.0216,0.0864,0.49536,0.33408,0,-0.09216
2003/3/3 23:15,0,0,0.64368,0.0216,0,0.4752,0.09792,0,-0.04032
2003/3/3 23:30,0,0,0.15552,0.0216,0.3816,0.27792,0.09792,0,-0.00288
2003/3/3 23:45,0,0,0.14256,0.0216,0.12528,0.2592,0.09648,0,0.0216
2003/3/4 0:00,0,0,0.14976,0.0216,0,0.2592,0.10512,0,0.02448
2003/3/4 0:15,0,0,0.14832,0.0216,0.32976,0.2592,0.09936,0,0.01296
2003/3/4 0:30,0,0,0.14544,0.0216,0.16992,0.26064,0.13248,0,0.00432
2003/3/4 0:45,0,0,0.13248,0.0216,0,0.2592,0.09792,0,0.03312
2003/3/4 1:00,0,0,0.14112,0.0216,0.27648,0.2592,0.1008,0,0.01152
2003/3/4 1:15,0,0,0.14688,0.0216,0.19296,0.2592,0.1008,0,0.01584
2003/3/4 1:30,0,0,0.14832,0.0216,0,0.2592,0.09936,0,0.03312
2003/3/4 1:45,0,0,0.15552,0.0216,0.25056,0.2664,0.10368,0,0.00144
2003/3/4 2:00,0,0,0.144,0.0216,0.20592,0.26208,0.13392,0,0.01296
2003/3/4 2:15,0,0,0.15552,0.0216,0,0.26496,0.09936,0,0.0288
2003/3/4 2:30,0,0,0.14544,0.0216,0.24048,0.2592,0.108,0,0.01008
2003/3/4 2:45,0,0,0.15264,0.0216,0.20016,0.26064,0.10224,0,0.0144
2003/3/4 3:00,0,0,0.1512,0.0216,0,0.2592,0.10656,0,0.02592
2003/3/4 3:15,0,0,0.14688,0.0216,0.23328,0.26064,0.13536,0,-0.00432
2003/3/4 3:30,0,0,0.14832,0.0216,0.23472,0.26928,0.10368,0,0.01584
2003/3/4 3:45,0,0,0.1512,0.0216,0,0.27648,0.10224,0,0.03024
2003/3/4 4:00,0,0,0.14976,0.0216,0.17568,0.2736,0.10512,0,0.01584
2003/3/4 4:15,0,0,0.15408,0.0216,0.27504,0.26496,0.13536,0,0.00432
2003/3/4 4:30,0,0,0.13824,0.0216,0,0.2592,0.10656,0,0.03312
2003/3/4 4:45,0,0,0.14976,0.0216,0.13104,0.2592,0.09936,0,0.01008
2003/3/4 5:00,0,0,0.14832,0.0216,0.324,0.26208,0.10656,0,0.0072
2003/3/4 5:15,0,0,0.144,0.0216,0,0.26784,0.10656,0,0.03456
2003/3/4 5:30,0,0,0.14832,0.0216,0.07344,0.2592,0.14256,0,0.01728
2003/3/4 5:45,0,0,0.14688,0.0216,0.39024,0.2592,0.10512,0,-0.0072
2003/3/4 6:00,0,0,0.14688,0.0216,0.00144,0.2592,0.10944,0,0.04608
2003/3/4 6:15,0,0,0.14544,0.0216,0,0.26352,0.10512,0,0.04032
2003/3/4 6:30,0,0,0.144,0.0216,0.37872,0.26064,0.11088,0,0.00576
2003/3/4 6:45,3.25296,0,0.2232,0.0216,0.07632,0.23904,0.13248,0,0.0216
2003/3/4 7:00,3.0528,0,0.49104,1.18512,0.01008,0.23184,0.1008,0,-0.0216
2003/3/4 7:15,2.84256,0,0.6264,0.57888,0.34416,0.1944,0.10224,0,-0.09216
2003/3/4 7:30,2.8224,0,0.66816,0.0216,0.49104,0.1944,0.1008,0,-0.03456
2003/3/4 7:45,2.58192,0,0.73872,0.0216,0.53712,0.33264,0.13104,0,-0.05904
2003/3/4 8:00,0,0,0.576,0.0216,0.5328,0.1944,0.52128,0,-0.07632
2003/3/4 8:15,2.21904,0,0.73728,0.0216,0.42192,0.1944,0.10368,0,-0.2952
2003/3/4 8:30,0.49968,0,0.38592,0.0216,0.468,0.1944,0.09936,0,-0.05472
2003/3/4 8:45,0,0,0.108,0.0216,0.4248,0.1944,0.12672,0,0.04032
2003/3/4 9:00,0,0,0.10944,0.0216,0.26352,0.1944,0.09504,0,0.0432
2003/3/4 9:15,0,0,0.11088,0.0216,0,0.1944,0.10224,0,0.06912
2003/3/4 9:30,0,0,0.11376,0.0216,0.33984,0.1944,0.09648,0,0.0504
2003/3/4 9:45,0,0,0.10512,0.0216,0.22032,0.1944,0.1296,0,0.05616
2003/3/4 10:00,0,0,0.10512,0.0216,0,0.1944,0.09504,0,0.0864
2003/3/4 10:15,0,0,0.11376,0.0216,0.32544,0.1944,0.09504,0,0.04176
2003/3/4 10:30,0,0,0.108,0.0216,0.16272,0.1944,0.09792,0,0.06048
2003/3/4 10:45,0,0,0.1224,0.0216,0,0.1944,0.12816,0,0.06192
2003/3/4 11:00,0,0,0.10656,0.0216,0.38592,0.1944,0.09504,0,0.04176
2003/3/4 11:15,0,0,0.11808,0.0216,0.108,0.1944,0.09504,0,0.06048
2003/3/4 11:30,0,0,0.11664,0.0216,0.00432,0.1944,0.0936,0,0.0648
2003/3/4 11:45,0,0,0.10224,0.0216,0.4176,0.1944,0.11376,0,0.03168
2003/3/4 12:00,0,0,0.11664,0.0216,0.05904,0.19872,0.1008,0,0.06192
2003/3/4 12:15,0,0,0.11664,0.0216,0.04464,0.1944,0.09072,0,0.0504
2003/3/4 12:30,0,0,0.11232,0.0216,0.40752,0.1944,0.09504,0,0.03024
2003/3/4 12:45,0,0,0.11664,0.0216,0.04032,0.1944,0.0936,0,0.06048
2003/3/4 13:00,0,0,0.1152,0.0216,0.02736,0.1944,0.09648,0,0.06768
2003/3/4 13:15,0,0,0.12816,0.0216,0.40896,0.1944,0.12528,0,0.01296
2003/3/4 13:30,0,0,0.11232,0.0216,0.0288,0.1944,0.09216,0,0.06624
2003/3/4 13:45,0,0,0.1152,0.0216,0.06192,0.1944,0.09648,0,0.0504
2003/3/4 14:00,0,0,0.11088,0.0216,0.40896,0.1944,0.09216,0,0.03312
2003/3/4 14:15,0,0,0.1152,0.0216,0.01296,0.1944,0.08928,0,0.072